Location: Prairie State College
(41.5244°N, 87.6382°W)
Time: 03:36:57
(UTC-06:00)

MSX - Visible Passes

Search period start: 11 December 2017 00:00
Search period end: 21 December 2017 00:00
Orbit: 896 x 905 km, 98.7° (Epoch: 30 November)

Date Brightness Start Highest point End Pass type
(mag) Time Alt. Az. Time Alt. Az. Time Alt. Az.
11 Dec 4.1 05:28:30 10° NNE 05:34:16 73° ESE 05:39:59 10° S visible
11 Dec 4.6 17:02:06 10° S 17:07:46 58° W 17:13:28 10° NNW visible
12 Dec 4.0 05:31:15 10° NNE 05:37:02 77° ESE 05:42:46 10° S visible
12 Dec 4.7 17:04:54 10° S 17:10:32 55° W 17:16:13 10° NNW visible
13 Dec 7.0 03:56:31 10° E 03:57:14 10° E 03:57:56 10° E visible
13 Dec 3.9 05:34:00 10° NNE 05:39:47 81° ESE 05:45:32 10° SSW visible
13 Dec 4.8 17:07:42 10° S 17:13:19 52° W 17:18:57 10° NNW visible
14 Dec 6.9 03:58:29 10° ENE 04:00:02 11° E 04:01:35 10° ESE visible
14 Dec 3.9 05:36:45 10° NNE 05:42:33 86° ESE 05:48:17 10° SSW visible
14 Dec 5.0 17:10:31 10° S 17:16:04 49° W 17:21:40 10° NNW visible
15 Dec 6.9 04:00:46 10° ENE 04:02:50 12° E 04:04:53 10° ESE visible
15 Dec 3.8 05:39:31 10° NNE 05:45:18 90° SE 05:51:03 10° SSW visible
15 Dec 5.1 17:13:20 10° S 17:18:51 46° W 17:24:23 10° NNW visible
16 Dec 6.8 04:03:10 10° ENE 04:05:38 13° E 04:08:05 10° ESE visible
16 Dec 3.8 05:42:17 10° NNE 05:48:04 86° WNW 05:53:48 10° SSW visible
16 Dec 5.2 17:16:09 10° S 17:21:37 43° W 17:27:07 10° NNW visible
17 Dec 6.7 04:05:39 10° ENE 04:08:26 14° E 04:11:12 10° ESE visible
17 Dec 3.8 05:45:03 10° NNE 05:50:49 82° WNW 05:56:32 10° SSW visible
17 Dec 5.3 17:19:00 10° SSW 17:24:24 41° W 17:29:50 10° NNW visible
18 Dec 6.7 04:08:10 10° ENE 04:11:14 15° E 04:14:16 10° ESE visible
18 Dec 3.7 05:47:48 10° N 05:53:34 77° WNW 05:59:17 10° SSW visible
18 Dec 5.4 17:21:49 10° SSW 17:27:10 39° W 17:32:33 10° NNW visible
19 Dec 6.6 04:10:43 10° NE 04:14:01 15° E 04:17:19 10° SE visible
19 Dec 3.7 05:50:34 10° N 05:56:19 73° WNW 06:02:01 10° SSW visible
19 Dec 5.5 17:24:40 10° SSW 17:29:57 37° W 17:35:15 10° NNW visible
20 Dec 6.5 04:13:17 10° NE 04:16:50 16° E 04:20:20 10° SE visible
20 Dec 3.8 05:53:21 10° N 05:59:03 69° WNW 06:04:45 10° SSW visible
20 Dec 5.6 17:27:31 10° SSW 17:32:43 35° W 17:37:57 10° NNW visible
